Date String (YYYY-MM-DD hh:mm:ss) UTC,Instrument flags,absolute air pressure of the measurement (hPa),sample flow rate (lpm),inlet stack bypass flow (lpm),air temperature of the measurement (°C),ambient temperature measured by the external sensor (°C),aerosol sample conditioner tube jacket temperature (°C),OPC LED temperature (°C),internal box temperature (°C),relative humidity of the measurement (%),span deviation,mass concentration of particles derived from Lorenz-Mie calculation of OPC scattering (μg/m³),mass concentration of particles derived from Lorenz-Mie calculation of OPC scattering (μg/m³),mass concentration of particles derived from Lorenz-Mie calculation of OPC scattering (μg/m³)
DateTimeUTC,F1_M11,P_M11,Q1_M11,Q2_M11,T1_M11,T2_M11,T3_M11,T4_M11,T5_M11,U1_M11,ZSPAN_M11,X0_M11,X2_M11,X1_M11
2023-08-20 21:00:00,SystemResetWarning,0835.2,5.00,000.00,031.3,025.5,000.0,038.9,030.5,34.3,0001.6,0020.17,0014.17,0012.94
2023-08-20 21:01:00,SystemResetWarning,0835.4,5.00,000.00,031.2,026.0,000.0,038.9,030.6,34.3,0001.5,0020.29,0014.12,0012.89
2023-08-20 21:02:00,SystemResetWarning,0835.0,5.00,000.00,031.2,026.1,000.0,038.9,030.6,34.4,0001.3,0021.18,0014.06,0012.87
2023-08-20 21:03:00,SystemResetWarning,0834.9,4.98,000.00,031.1,025.2,000.0,038.8,030.3,34.5,0001.2,0021.49,0013.95,0012.84
2023-08-20 21:04:00,SystemResetWarning,0834.7,5.00,000.00,031.1,024.4,000.0,038.7,030.2,34.3,0001.2,0021.14,0013.90,0012.80
2023-08-20 21:05:00,SystemResetWarning,0834.7,5.02,000.00,030.9,024.5,000.0,038.6,030.2,34.6,0001.2,0020.35,0013.83,0012.74
2023-08-20 21:06:00,SystemResetWarning,0835.1,4.98,000.00,030.8,024.8,000.0,038.7,030.1,35.3,0001.2,0020.86,0013.86,0012.71
2023-08-20 21:07:00,SystemResetWarning,0835.2,5.03,000.00,030.8,025.2,000.0,038.7,030.3,35.6,0001.3,0020.99,0013.87,0012.68
2023-08-20 21:08:00,SystemResetWarning,0834.9,4.99,000.00,031.0,025.7,000.0,038.6,030.6,34.9,0001.3,0020.92,0013.84,0012.62
2023-08-20 21:09:00,SystemResetWarning,0834.7,4.98,000.00,031.2,026.1,000.0,038.6,030.7,33.4,0001.4,0020.93,0013.84,0012.57
2023-08-20 21:10:00,SystemResetWarning,0835.1,5.00,000.00,031.3,026.2,000.0,038.6,030.8,33.0,0001.5,0021.65,0013.77,0012.53
2023-08-20 21:11:00,SystemResetWarning,0835.1,5.00,000.00,031.4,025.2,000.0,038.6,030.5,33.0,0001.6,0021.15,0013.68,0012.51
2023-08-20 21:12:00,SystemResetWarning,0834.6,5.01,000.00,031.4,024.5,000.0,038.5,030.4,33.2,0001.5,0020.67,0013.60,0012.50
2023-08-20 21:13:00,SystemResetWarning,0834.7,5.01,000.00,031.3,024.5,000.0,038.5,030.2,33.4,0001.4,0020.57,0013.58,0012.50
2023-08-20 21:14:00,SystemResetWarning,0834.6,5.00,000.00,031.1,024.8,000.0,038.6,030.1,33.8,0001.4,0019.46,0013.53,0012.46
2023-08-20 21:15:00,SystemResetWarning,0834.6,5.00,000.00,031.0,025.3,000.0,038.6,030.3,33.9,0001.3,0019.46,0013.53,0012.43
2023-08-20 21:16:00,SystemResetWarning,0834.7,4.99,000.00,031.0,025.7,000.0,038.7,030.4,34.1,0001.1,0019.72,0013.53,0012.42
2023-08-20 21:17:00,SystemResetWarning,0834.6,5.00,000.00,030.9,026.1,000.0,038.7,030.5,34.0,0001.0,0019.95,0013.46,0012.38
2023-08-20 21:18:00,SystemResetWarning,0834.8,4.99,000.00,030.9,025.7,000.0,038.6,030.4,34.1,0000.9,0019.81,0013.36,0012.34
2023-08-20 21:19:00,SystemResetWarning,0835.0,4.99,000.00,030.9,024.6,000.0,038.5,030.2,34.3,0001.1,0019.96,0013.32,0012.33
2023-08-20 21:20:00,SystemResetWarning,0834.5,5.01,000.00,030.8,024.4,000.0,038.4,030.2,34.5,0000.9,0020.15,0013.32,0012.32
2023-08-20 21:21:00,SystemResetWarning,0834.5,5.01,000.00,030.6,024.6,000.0,038.4,030.0,34.8,0001.1,0019.52,0013.25,0012.29
2023-08-20 21:22:00,SystemResetWarning,0834.4,4.97,000.00,030.4,025.0,000.0,038.4,030.0,35.1,0001.5,0020.21,0013.23,0012.25
2023-08-20 21:23:00,SystemResetWarning,0834.4,5.04,000.00,030.5,025.4,000.0,038.4,030.2,35.1,0001.4,0020.57,0013.25,0012.21
2023-08-20 21:24:00,SystemResetWarning,0834.5,4.96,000.00,030.7,025.9,000.0,038.4,030.5,34.9,0001.1,0020.41,0013.22,0012.17
2023-08-20 21:25:00,SystemResetWarning,0834.4,5.03,000.00,030.8,026.0,000.0,038.4,030.5,34.9,0001.3,0020.14,0013.18,0012.13
2023-08-20 21:26:00,SystemResetWarning,0834.3,4.98,000.00,030.9,025.0,000.0,038.3,030.4,34.7,0001.1,0020.18,0013.13,0012.12
2023-08-20 21:27:00,SystemResetWarning,0834.4,5.00,000.00,030.9,024.3,000.0,038.2,030.2,34.3,0001.2,0020.50,0013.13,0012.08
2023-08-20 21:28:00,SystemResetWarning,0834.4,5.01,000.00,030.9,024.4,000.0,038.2,030.0,34.1,0001.4,0020.01,0013.13,0012.07
2023-08-20 21:29:00,SystemResetWarning,0834.4,4.98,000.00,030.7,024.8,000.0,038.2,029.9,34.3,0001.4,0020.03,0013.16,0012.06
2023-08-20 21:30:00,SystemResetWarning,0834.5,4.99,000.00,030.6,025.2,000.0,038.3,030.1,34.2,0001.7,0020.22,0013.13,0012.04
2023-08-20 21:31:00,SystemResetWarning,0834.5,5.02,000.00,030.6,025.7,000.0,038.3,030.2,34.4,0001.7,0020.17,0013.02,0012.01
2023-08-20 21:32:00,SystemResetWarning,0834.4,5.00,000.00,030.6,026.1,000.0,038.4,030.4,34.2,0001.4,0020.13,0013.00,0011.96
2023-08-20 21:33:00,SystemResetWarning,0834.4,5.00,000.00,030.6,026.4,000.0,038.4,030.4,34.1,0001.0,0019.35,0012.97,0011.95
2023-08-20 21:34:00,SystemResetWarning,0834.5,4.98,000.00,030.6,026.0,000.0,038.3,030.4,34.0,0000.9,0018.99,0012.93,0011.93
2023-08-20 21:35:00,SystemResetWarning,0834.4,5.00,000.00,030.5,024.8,000.0,038.2,030.1,34.0,0001.1,0019.18,0012.89,0011.92
2023-08-20 21:36:00,SystemResetWarning,0834.4,5.01,000.00,030.4,024.5,000.0,038.1,030.1,34.2,0001.2,0019.12,0012.89,0011.91
2023-08-20 21:37:00,SystemResetWarning,0834.3,5.00,000.00,030.3,024.8,000.0,038.1,030.0,34.4,0001.2,0018.91,0012.86,0011.88
2023-08-20 21:38:00,SystemResetWarning,0834.4,5.00,000.00,030.2,025.2,000.0,038.1,030.0,34.6,0001.4,0018.36,0012.84,0011.86
2023-08-20 21:39:00,SystemResetWarning,0834.4,4.99,000.00,030.1,025.6,000.0,038.1,030.1,34.8,0001.6,0018.14,0012.80,0011.82
2023-08-20 21:40:00,SystemResetWarning,0834.3,4.99,000.00,030.1,026.0,000.0,038.1,030.2,34.9,0001.7,0018.41,0012.72,0011.76
2023-08-20 21:41:00,SystemResetWarning,0834.3,5.01,000.00,030.1,026.1,000.0,038.1,030.3,34.7,0001.4,0018.65,0012.70,0011.73
2023-08-20 21:42:00,SystemResetWarning,0834.3,4.97,000.00,030.1,025.0,000.0,038.0,030.1,34.8,0001.2,0018.70,0012.71,0011.69
2023-08-20 21:43:00,SystemResetWarning,0834.2,5.05,000.00,030.1,024.4,000.0,037.9,030.0,35.0,0001.3,0018.66,0012.73,0011.70
2023-08-20 21:44:00,SystemResetWarning,0834.2,4.95,000.00,030.2,024.5,000.0,037.8,030.0,35.0,0001.5,0018.67,0012.75,0011.69
2023-08-20 21:45:00,SystemResetWarning,0834.2,5.05,000.00,030.2,024.8,000.0,037.9,030.0,35.3,0001.5,0019.10,0012.74,0011.64
2023-08-20 21:46:00,SystemResetWarning,0834.2,4.98,000.00,030.4,025.3,000.0,037.9,030.2,34.8,0001.5,0018.88,0012.75,0011.62
2023-08-20 21:47:00,SystemResetWarning,0834.3,4.98,000.00,030.6,025.7,000.0,037.9,030.4,34.1,0001.4,0018.96,0012.72,0011.60
2023-08-20 21:48:00,SystemResetWarning,0834.5,5.01,000.00,030.8,026.1,000.0,038.0,030.5,34.0,0001.3,0019.27,0012.77,0011.62
2023-08-20 21:49:00,SystemResetWarning,0834.5,5.01,000.00,030.9,025.6,000.0,038.0,030.4,33.9,0001.1,0019.31,0012.77,0011.60
2023-08-20 21:50:00,SystemResetWarning,0834.2,4.99,000.00,030.9,024.5,000.0,037.9,030.2,33.6,0000.7,0019.46,0012.85,0011.61
2023-08-20 21:51:00,SystemResetWarning,0834.2,5.00,000.00,030.8,024.4,000.0,037.9,030.1,33.6,0000.6,0019.04,0012.89,0011.66
2023-08-20 21:52:00,SystemResetWarning,0834.1,5.01,000.00,030.7,024.7,000.0,038.0,030.0,34.1,0000.4,0019.27,0012.94,0011.68
2023-08-20 21:53:00,SystemResetWarning,0834.1,5.01,000.00,030.6,025.1,000.0,038.1,030.0,34.2,0000.4,0019.69,0012.95,0011.71
2023-08-20 21:54:00,SystemResetWarning,0834.1,5.00,000.00,030.5,025.5,000.0,038.1,030.2,33.4,0000.1,0019.97,0012.94,0011.70
2023-08-20 21:55:00,SystemResetWarning,0834.1,5.00,000.00,030.5,026.0,000.0,038.2,030.3,33.6,0000.1,0020.05,0012.93,0011.72
2023-08-20 21:56:00,SystemResetWarning,0834.1,5.00,000.00,030.5,026.0,000.0,038.2,030.3,33.5,0000.3,0020.68,0012.92,0011.73
2023-08-20 21:57:00,SystemResetWarning,0834.0,4.98,000.00,030.4,025.0,000.0,038.1,030.0,33.1,0000.2,0020.73,0012.90,0011.72
2023-08-20 21:58:00,SystemResetWarning,0834.0,5.02,000.00,030.4,024.4,000.0,038.0,030.0,33.3,-000.0,0021.05,0012.89,0011.70
2023-08-20 21:59:00,SystemResetWarning,0834.0,5.01,000.00,030.3,024.6,000.0,038.0,029.9,33.7,0000.1,0021.85,0012.85,0011.68
